Weather History for LESO - March, 2014

Change the Weather History Date:

Saturday, March 8, 2014

  Actual Average Record
Temperature  
Mean Temperature 55 °F -  
Max Temperature 71 °F 59 °F 71 °F (2014)
Min Temperature 39 °F 46 °F 33 °F (2005)
Degree Days  
Heating Degree Days 10    
Growing Degree Days 5 (Base 50)    
Moisture  
Dew Point 44 °F    
Average Humidity 68    
Maximum Humidity 100    
Minimum Humidity 30    
Precipitation  
Precipitation 0.00 in - - ()
Sea Level Pressure  
Sea Level Pressure 30.13 in    
Wind  
Wind Speed 3 mph ()    
Max Wind Speed 9 mph    
Max Gust Speed -    
Visibility 11.1 miles    
Events      
Averages and records for this station are not official NWS values.
T = Trace of Precipitation, MM = Missing Value Source: Averaged Metar Reports

Daily Weather History Graph

Daily Weather History Graph

Search for Another Location

Airport or City:

Trip Planner

Search our weather history database for the weather conditions in past years. The results will help you decide how hot, cold, wet, or windy it might be!

Date:

Astronomy

Mar. 08, 2014 Rise Set
Actual Time 7:31 AM CET 7:04 PM CET
Civil Twilight 7:03 AM CET 7:33 PM CET
Nautical Twilight 6:30 AM CET 8:06 PM CET
Astronomical Twilight 5:57 AM CET 8:39 PM CET
Moon 11:50 AM CET (3/8) 2:00 AM CET (3/8)
Length of Visible Light 12h 29m
Length of Day
11h 32m
Waxing Crescent, 49% of the Moon is Illuminated
Mar 8
Waxing Crescent
Mar 8
First Quarter
Mar 16
Full
Mar 24
Last Quarter
Mar 30
New

Hourly Weather History & Observations

Time (CET) Temp. Dew Point Humidity Pressure Visibility Wind Dir Wind Speed Gust Speed Precip Events Conditions
5:30 AM 41.0 °F 39.2 °F 93% 30.18 in 2.5 mi Variable 2.3 mph - N/A   Mist
6:00 AM 41.0 °F 41.0 °F 100% 30.18 in 5.6 mi Variable 1.2 mph - N/A   Unknown
6:30 AM 41.0 °F 41.0 °F 100% 30.18 in 5.6 mi Variable 2.3 mph - N/A   Unknown
7:00 AM 40 °F 39 °F 96% 30.19 in 9 mi SSW 2.3 mph - -  
7:00 AM 39.2 °F 37.4 °F 93% 30.18 in - Variable 2.3 mph - N/A   Clear
7:30 AM 39.2 °F 39.2 °F 100% 30.18 in - Variable 1.2 mph - N/A   Clear
8:00 AM 39.2 °F 39.2 °F 100% 30.18 in - Variable 2.3 mph - N/A   Clear
8:30 AM 42.8 °F 41.0 °F 93% 30.18 in - Variable 2.3 mph - N/A   Clear
9:00 AM 44.6 °F 42.8 °F 93% 30.18 in - Variable 1.2 mph - N/A   Clear
9:30 AM 46.4 °F 44.6 °F 93% 30.21 in - Variable 2.3 mph - N/A   Clear
10:00 AM 51 °F 47 °F 81% 30.21 in 12 mi South 2.3 mph - -  
10:00 AM 50.0 °F 46.4 °F 87% 30.18 in - Variable 1.2 mph - N/A   Clear
10:30 AM 55.4 °F 46.4 °F 72% 30.18 in - Calm Calm - N/A   Clear
11:00 AM 57.2 °F 44.6 °F 63% 30.18 in - Variable 1.2 mph - N/A   Clear
11:30 AM 57.2 °F 46.4 °F 67% 30.18 in - Variable 1.2 mph - N/A   Clear
12:00 PM 59.0 °F 46.4 °F 63% 30.15 in - Variable 1.2 mph - N/A   Clear
12:30 PM 59.0 °F 46.4 °F 63% 30.15 in - North 4.6 mph - N/A   Clear
1:00 PM 64 °F 46 °F 41% 30.17 in 16 mi North 5.8 mph - -  
1:00 PM 60.8 °F 46.4 °F 59% 30.15 in - North 4.6 mph - N/A   Clear
1:30 PM 62.6 °F 44.6 °F 52% 30.12 in - North 3.5 mph - N/A   Clear
2:00 PM 64.4 °F 46.4 °F 52% 30.12 in - North 3.5 mph - N/A   Clear
2:30 PM 64.4 °F 46.4 °F 52% 30.12 in - North 5.8 mph - N/A   Clear
3:00 PM 62.6 °F 48.2 °F 59% 30.09 in - NNW 5.8 mph - N/A   Clear
3:30 PM 62.6 °F 48.2 °F 59% 30.09 in - NNW 5.8 mph - N/A   Clear
4:00 PM 68 °F 48 °F 37% 30.11 in 19 mi NNW 8.1 mph - -  
4:00 PM 62.6 °F 48.2 °F 59% 30.09 in - NNW 8.1 mph - N/A   Clear
4:30 PM 62.6 °F 48.2 °F 59% 30.09 in - NNW 9.2 mph - N/A   Clear
5:00 PM 64.4 °F 44.6 °F 49% 30.06 in - NW 6.9 mph - N/A   Clear
5:30 PM 66.2 °F 42.8 °F 43% 30.06 in - NNW 3.5 mph - N/A   Clear
6:00 PM 68.0 °F 42.8 °F 40% 30.06 in - Variable 2.3 mph - N/A   Clear
6:30 PM 64.4 °F 42.8 °F 45% 30.06 in - NNW 4.6 mph - N/A   Clear
7:00 PM 68 °F 44 °F 30% 30.09 in 19 mi Calm Calm - -  
7:00 PM 60.8 °F 46.4 °F 59% 30.06 in - Calm Calm - N/A   Clear
7:30 PM 59.0 °F 46.4 °F 63% 30.09 in - Variable 1.2 mph - N/A   Clear
8:00 PM 57.2 °F 44.6 °F 63% 30.09 in - Variable 1.2 mph - N/A   Clear
8:30 PM 53.6 °F 46.4 °F 77% 30.09 in - Variable 1.2 mph - N/A   Clear
9:00 PM 53.6 °F 44.6 °F 72% 30.09 in - SSW 3.5 mph - N/A   Clear
9:30 PM 53.6 °F 42.8 °F 67% 30.09 in - Variable 2.3 mph - N/A   Clear